Location: ??????
(30.5519°N, 47.7720°E)
Time: 08:58:24
(UTC+00:00)

PSLV R/B - Visible Passes

Search period start: 09 May 2021 00:00
Search period end: 19 May 2021 00:00
Orbit: 568 x 597 km, 98.2° (Epoch: 08 May)

Date Brightness Start Highest point End Pass type
(mag) Time Alt. Az. Time Alt. Az. Time Alt. Az.
14 May 5.1 15:58:32 10° N 16:02:37 50° WNW 16:06:40 10° SSW visible
15 May 5.5 16:04:19 10° N 16:08:18 43° WNW 16:12:15 10° SW visible
16 May 5.8 16:10:07 10° N 16:13:59 36° WNW 16:17:50 10° SW visible
17 May 6.1 16:15:57 10° N 16:19:40 31° WNW 16:23:21 10° SW visible
18 May 6.5 16:21:48 10° NNW 16:25:20 27° WNW 16:28:51 10° SW visible
